Temp_Advection
nan nan nan nan nan nan nan nan nan nan nan nan nan nan nan nan nan nan nan nan nan nan nan nan nan nan nan nan nan nan nan nan nan nan nan nan nan nan nan nan nan nan nan nan
nan -0 0 0 -0 -0 0 0 -0 -1 -1 -0 -0 -1 -1 -1 -1 -1 -0 -1 -1 -1 -1 -1 -1 -1 -1 -2 -0 1 0 1 0 -0 -1 0 1 0 -0 -0 -0 0 -0 nan
nan -0 -0 -0 -0 -0 -0 0 0 -1 -2 -1 -0 -1 -1 -1 -1 -2 -1 -1 -1 -1 -1 -1 -1 -1 -1 -1 -2 -1 1 1 0 1 1 1 1 0 -0 -0 0 -0 -0 nan
nan -0 -0 -0 -0 0 -0 -0 0 -0 -1 -1 -1 -1 -1 -1 -1 -1 -2 -2 -3 -3 -2 -3 -2 -1 -1 -2 -1 -0 -0 1 2 1 0 0 0 0 -0 -0 0 0 -0 nan
nan -1 -0 -0 -0 -0 -0 -0 -0 0 0 -0 -0 -0 -2 -0 -1 -2 -2 -1 -2 -3 -3 -3 -3 -4 -1 -1 -2 -2 -0 1 1 0 0 1 -0 0 -0 0 0 0 -0 nan
nan -1 -0 -0 -1 -0 -0 -1 -1 -0 0 -0 -0 0 -0 -0 -0 -1 -1 -2 -1 -1 -1 -2 -2 -3 -2 -1 -2 -1 -1 -0 1 1 1 0 0 -0 -1 -0 0 0 -0 nan
nan -1 0 -0 -1 -1 -1 0 -0 -0 -0 -0 0 0 -0 -0 0 -0 -1 -1 -2 -1 -1 -2 -3 -3 -4 -2 -2 -2 -1 -1 0 0 1 0 1 -0 -1 0 0 0 0 nan
nan -1 0 -0 0 -0 -0 -0 -0 -0 -0 -1 -1 0 -0 -0 0 0 0 -0 -1 -2 -2 -2 -3 -3 -4 -3 -3 -2 -1 -1 -1 1 0 -0 0 -0 0 0 0 0 -0 nan
nan -0 -1 -0 -0 0 0 -0 0 0 -0 -0 -0 -0 0 -1 0 0 -0 -1 -0 -1 -1 -2 -2 -2 -3 -4 -3 -2 -2 -2 -1 -1 -1 2 -0 -1 -0 -0 0 0 0 nan
nan -0 -1 -1 -1 -0 -0 0 -0 -0 -0 -0 -1 0 -0 -0 -1 -1 -1 -1 -1 -1 -1 -1 -1 -1 -1 -2 -2 -2 -2 -2 -1 -2 -0 -1 -1 -0 -0 1 0 0 1 nan
nan -0 -1 -0 -0 -0 -0 -1 0 -0 -0 0 -1 -0 -0 -0 -0 -0 -1 -1 -1 -0 -0 -0 -0 -1 -1 -2 -2 -3 -4 -3 -1 -2 -1 1 -3 -2 1 1 0 1 -0 nan
nan -0 -0 -1 -1 -1 -1 0 0 -0 -0 -0 -0 -1 -1 -0 -0 -0 -1 -1 -0 -0 0 0 0 -1 -1 -1 -2 -3 -5 -5 -2 -2 -2 -0 -1 -2 -0 1 1 0 0 nan
nan 0 -0 -1 -1 -1 -0 0 0 -0 0 0 -0 -1 -1 -0 -0 -0 -1 -0 -0 -0 0 0 0 -0 -1 -1 -1 -2 -2 -4 -3 -2 -0 0 -0 -2 0 -2 -1 1 0 nan
nan 0 -0 0 0 0 -0 -1 -0 0 -0 -1 -1 -1 -1 -1 -0 -0 -0 -0 -0 -1 -0 0 0 0 0 -1 -0 -1 -1 -2 -3 -3 -1 -1 0 0 -3 -4 -1 1 0 nan
nan 0 -0 -1 -1 -0 1 0 1 1 -0 -1 -2 -1 -1 -0 -0 -0 -0 -0 -0 -0 -0 1 1 1 0 0 -0 -0 -0 -0 -1 -2 -3 -2 -1 -1 -1 -1 0 0 1 nan
nan 0 -0 -0 -1 -0 -1 0 0 -0 -0 -0 -0 1 -0 -0 -0 -1 -0 -0 -0 0 0 0 1 1 1 1 0 -0 -0 0 -1 -1 -1 -2 -1 -1 -1 0 1 1 0 nan
nan -0 -0 -1 -1 -0 -0 -1 -0 0 -0 0 -0 -0 -0 0 0 -0 0 -0 -0 0 0 -0 0 0 1 1 0 -0 -0 0 -0 -0 -1 -1 -1 -2 -1 -1 -1 -1 -1 nan
nan -0 0 -0 0 -0 -2 0 -0 -0 -0 0 0 0 -0 0 -0 0 0 0 0 0 0 0 -0 0 0 0 0 0 -1 -0 0 0 -0 -1 -1 -1 -2 -2 -1 -1 -1 nan
nan -0 -0 -0 -0 -1 -1 -0 0 0 0 0 0 -0 0 -0 0 -0 0 0 0 0 -0 -0 -0 -0 -0 -0 0 0 -1 -1 -1 -1 -0 -0 -0 -1 -1 -2 -2 -2 -2 nan
nan 1 0 0 0 -0 -0 -0 0 1 0 -0 0 -0 -0 0 -0 -0 0 0 0 0 0 -0 -0 -0 -0 -0 0 0 -0 -1 -1 -1 -0 0 0 -0 -0 -1 -1 -2 -2 nan
nan -0 1 0 -0 -1 -0 -0 1 -1 -0 -1 0 0 1 0 -0 0 0 0 0 -0 -0 -0 -0 -0 -0 -0 -0 0 0 -1 -1 -1 -1 -1 -0 0 0 -0 -0 -1 -1 nan
nan -0 0 -0 -0 -1 0 0 0 -0 0 -0 0 -0 -0 1 -0 -0 -0 0 -0 -0 -0 -0 -0 -0 -0 -0 -0 -0 -0 0 0 -1 -1 -1 -1 -1 0 -0 -0 -0 -1 nan
nan -0 -0 -0 -1 -1 -0 0 0 0 -0 0 0 -0 -0 -0 -1 -1 -1 -0 -0 -0 -0 -0 -0 -0 -0 -0 -0 -0 -0 -0 0 0 -0 -1 -1 -1 -0 -0 -0 -0 -1 nan
nan 1 0 -0 0 -0 -1 0 0 0 0 -0 0 -0 -0 -0 -0 -1 -1 -1 -1 -0 -0 -0 -0 -0 -0 -0 -0 -0 -0 -0 -1 0 0 -0 -1 -1 -1 -1 -1 -0 -0 nan
nan -1 0 -1 -1 -1 -1 -0 0 1 1 0 0 -0 -0 -0 -0 -0 -0 -0 -0 -1 -0 -0 -0 -0 -0 -0 -0 0 -0 -0 -1 -1 -1 -1 -1 -1 -2 -1 -1 -1 -0 nan
nan nan nan nan nan nan nan nan nan nan nan nan nan nan nan nan nan nan nan nan nan nan nan nan nan nan nan nan nan nan nan nan nan nan nan nan nan nan nan nan nan nan nan nan
Wind_Speed
13 5 5 9 8 9 8 11 13 15 15 13 17 12 18 22 25 22 25 28 30 26 22 23 27 21 30 34 40 38 49 49 44 44 44 42 40 40 39 37 38 36 40 40
6 4 10 15 14 14 9 12 15 14 15 16 17 18 18 18 17 24 25 28 32 30 29 33 31 34 31 25 39 31 43 52 51 50 46 45 47 44 41 39 40 38 38 39
5 7 18 15 14 16 11 11 12 17 19 14 10 13 14 19 29 31 31 34 37 37 35 37 40 38 36 34 29 21 37 55 55 53 49 47 44 42 42 42 43 44 41 38
5 13 13 14 11 11 12 9 14 15 14 8 13 14 16 13 12 16 26 28 29 31 29 24 42 44 42 41 36 26 26 50 58 58 54 53 51 52 50 49 47 47 45 42
7 13 13 12 15 13 8 14 7 10 14 8 15 6 17 8 9 19 28 26 29 33 31 25 17 31 38 27 28 32 28 35 56 63 59 56 53 51 51 50 50 47 48 47
12 18 6 5 15 9 12 15 13 10 3 5 7 5 5 5 9 17 26 29 28 27 31 34 28 21 24 26 26 26 21 27 39 56 63 61 57 53 52 49 48 53 52 52
8 7 4 26 17 13 14 10 4 4 4 2 7 8 2 12 13 16 19 31 33 30 29 33 37 35 28 25 25 24 23 24 26 53 57 63 61 56 53 56 53 53 56 54
4 7 12 21 13 12 12 5 1 5 3 9 15 6 3 3 1 12 15 20 29 29 30 33 37 36 35 33 30 25 23 22 23 36 56 60 63 59 56 56 57 58 57 62
3 3 16 12 18 7 7 5 8 4 4 5 4 5 5 9 8 11 14 16 18 23 32 38 38 37 39 35 33 26 25 28 20 21 56 66 68 65 62 58 58 58 58 62
4 6 5 14 17 12 10 11 4 3 3 5 5 2 2 14 18 17 17 25 27 37 38 42 37 39 39 31 29 24 22 29 32 26 32 49 65 68 63 58 59 57 59 62
2 3 5 7 6 14 14 4 5 2 3 3 6 4 3 15 17 13 16 26 28 33 30 31 36 36 39 29 27 27 26 30 34 30 25 41 40 65 61 57 53 60 53 61
2 4 2 12 13 10 12 5 3 2 6 2 4 7 8 20 29 20 20 25 23 23 24 33 34 37 41 36 35 34 34 31 31 29 21 24 55 51 57 56 54 58 56 55
2 2 4 6 4 4 2 2 4 3 3 5 3 7 14 27 26 16 19 25 26 21 23 30 31 36 43 42 40 38 35 32 29 26 18 7 25 42 44 55 56 54 53 57
7 5 7 6 10 3 7 7 7 7 3 8 11 23 18 18 16 8 14 17 18 24 21 26 33 29 35 39 40 40 39 32 28 26 18 14 8 26 47 53 51 54 54 52
2 2 3 6 11 15 18 18 18 12 12 8 17 19 19 11 9 9 10 15 15 22 24 24 25 29 31 35 41 41 43 38 30 28 21 19 15 10 21 40 43 43 46 54
3 2 5 15 13 16 18 18 21 16 18 19 18 16 4 6 16 16 16 13 13 18 23 23 24 26 27 29 32 39 39 40 36 31 27 20 20 15 12 9 24 37 44 49
4 1 2 6 8 12 9 8 3 4 11 6 4 5 12 9 4 6 8 9 11 18 24 24 24 27 24 29 31 31 34 36 37 34 32 29 23 21 18 12 7 16 30 37
5 3 2 7 10 2 7 6 1 5 2 3 6 7 5 6 6 3 9 12 14 19 25 18 23 24 16 23 30 31 27 30 32 34 35 32 29 26 21 16 17 16 18 33
18 5 2 2 3 10 9 5 4 4 0 9 6 11 4 7 3 4 15 9 14 16 21 17 20 19 20 22 28 35 31 26 26 33 35 36 30 29 27 23 18 17 21 21
11 12 7 1 1 4 3 6 20 19 2 12 10 12 16 1 2 4 13 9 12 16 17 14 17 20 19 21 26 30 28 32 32 25 30 33 31 27 28 26 24 22 16 26
1 2 6 3 4 6 1 11 21 4 6 10 6 7 13 4 8 9 9 12 15 22 10 17 21 20 21 23 21 24 26 28 35 28 21 26 32 28 26 26 25 25 22 15
4 4 3 1 2 7 8 14 3 7 15 3 5 13 16 19 21 13 12 11 14 19 17 18 21 21 21 23 24 23 22 27 32 29 26 20 20 29 28 24 24 24 24 22
4 4 3 5 6 8 20 22 20 6 12 14 12 6 12 15 18 18 17 16 13 15 17 19 20 20 21 22 26 24 24 28 28 27 24 24 22 18 23 24 22 23 23 23
5 15 3 6 3 12 20 23 11 14 15 12 8 8 10 15 18 18 17 18 18 16 17 18 19 22 23 24 22 22 26 27 26 27 26 28 28 26 20 22 22 20 21 24
7 11 6 10 13 18 20 16 18 17 13 14 6 6 9 13 17 17 17 16 14 16 20 18 19 22 22 26 23 26 27 26 25 23 23 25 27 29 28 25 20 18 15 18
17 17 8 10 22 19 22 27 24 21 5 4 7 11 12 12 14 12 11 13 16 16 16 18 20 21 24 25 24 28 28 23 23 25 23 25 25 29 31 30 25 15 13 11
Wind_Direction
339 353 306 307 333 318 318 312 308 307 313 313 309 307 309 309 306 309 310 311 308 305 299 279 274 284 270 248 251 228 214 215 213 205 204 203 210 212 214 217 221 217 214 214
8 317 332 327 318 310 318 312 304 308 316 327 323 314 303 304 304 309 305 305 304 305 299 291 282 282 279 278 249 247 229 220 216 210 208 214 211 210 215 214 221 224 219 216
338 305 344 338 339 329 321 307 321 328 332 312 309 306 311 317 316 311 308 291 286 283 287 289 285 285 289 288 297 269 227 221 218 217 209 208 206 206 211 216 218 222 225 220
350 341 318 316 308 305 302 325 313 337 343 309 324 299 294 294 300 332 334 339 342 311 304 297 280 286 288 285 286 291 257 223 221 216 211 207 205 203 207 214 216 221 225 225
289 340 345 353 348 347 312 338 338 300 289 309 297 295 279 312 9 355 354 11 15 5 3 2 321 295 284 305 298 284 288 238 218 216 217 213 210 207 208 212 216 221 223 228
319 306 48 21 343 332 327 346 319 293 240 259 324 1 320 26 356 350 354 350 8 15 4 354 346 330 290 293 293 283 285 272 237 221 217 216 214 208 207 208 217 218 225 224
319 9 105 21 345 337 359 341 336 333 359 239 11 304 35 8 12 354 358 345 2 2 3 359 346 340 331 329 314 301 298 276 277 228 222 218 220 214 215 210 212 216 221 224
355 336 20 339 340 341 322 332 188 297 310 297 307 264 72 232 124 35 347 357 355 350 356 353 348 342 334 330 332 328 305 303 264 250 229 227 218 218 217 214 212 218 218 225
333 263 321 322 354 332 314 7 299 262 277 275 239 77 97 314 21 10 6 14 356 360 354 354 348 347 344 335 340 342 325 312 297 289 234 229 222 218 218 215 213 217 221 222
242 295 321 344 322 335 337 313 4 352 331 304 301 303 182 18 8 5 12 7 4 1 357 355 352 351 350 346 360 359 324 314 305 296 268 244 231 226 223 219 214 217 220 221
43 107 305 341 332 316 321 35 346 305 1 309 344 281 236 2 354 360 17 356 357 1 355 355 352 356 356 350 358 340 321 311 307 322 288 258 256 229 226 220 222 216 221 223
117 161 298 307 301 72 60 7 5 91 314 268 250 261 276 341 336 349 7 355 355 355 351 353 353 4 6 2 0 350 338 324 318 345 326 247 257 243 231 227 223 218 219 228
48 324 341 324 350 354 299 289 225 204 190 228 252 273 327 308 308 357 8 359 358 348 347 359 354 5 8 8 7 357 353 344 329 346 353 252 227 238 238 235 228 222 217 223
190 181 175 260 244 242 305 283 259 202 160 260 252 281 295 295 311 4 19 7 6 11 4 355 355 344 354 1 9 0 2 4 349 343 340 355 191 226 237 237 232 228 224 225
350 211 191 244 264 285 286 286 286 272 251 226 275 270 279 308 339 14 16 6 9 1 1 359 353 360 1 356 7 4 6 11 14 6 348 335 337 283 240 227 236 238 234 232
343 294 321 293 283 280 288 300 283 279 271 262 274 273 39 9 9 11 2 345 355 356 0 349 343 348 357 358 354 356 358 4 12 18 18 354 330 336 324 216 229 236 238 234
271 188 31 264 304 314 300 266 310 318 343 302 307 349 340 2 332 27 350 2 352 351 337 330 348 339 337 348 351 346 355 2 4 9 19 25 11 336 341 303 301 254 239 242
224 210 169 280 312 311 242 354 96 17 44 350 319 347 305 38 164 6 358 346 347 358 345 346 351 345 339 342 341 350 342 1 0 2 10 21 21 17 358 330 291 289 248 238
211 179 220 227 255 269 293 344 332 303 165 319 320 314 8 13 230 295 354 357 339 334 317 341 355 357 357 351 345 345 351 357 358 5 2 10 11 14 14 10 349 302 276 256
216 203 198 196 249 264 252 304 312 298 172 305 310 332 328 302 16 260 357 3 341 347 337 349 351 351 348 350 343 345 353 351 358 357 5 359 0 5 7 11 10 1 313 276
268 329 197 203 227 260 200 319 325 55 249 253 293 315 307 312 288 307 348 342 340 332 347 344 345 347 343 341 348 347 354 344 346 357 352 6 354 353 358 359 8 5 4 322
202 195 211 180 169 268 3 344 342 254 306 352 268 350 350 351 354 310 332 325 336 344 345 349 348 346 344 343 349 344 348 338 344 354 360 342 357 347 347 349 354 3 4 8
285 185 223 193 217 248 306 299 303 1 12 350 329 314 340 356 360 351 349 346 347 342 347 349 344 343 348 339 344 344 338 337 347 351 353 351 358 347 343 346 343 349 356 0
282 305 261 327 358 304 313 315 323 351 331 324 316 349 336 339 341 339 340 343 348 339 339 348 339 336 339 336 349 340 332 339 343 349 352 353 356 353 351 340 337 333 345 350
251 311 293 286 294 302 297 284 304 305 283 290 296 323 335 327 319 325 327 335 339 335 333 339 336 336 331 334 335 333 337 338 344 350 352 353 348 347 350 345 344 333 331 340
248 252 249 264 277 281 291 301 297 280 242 221 312 321 319 325 316 317 327 329 330 344 339 330 333 329 323 329 328 335 337 341 348 348 351 349 344 341 344 341 340 352 332 293
Height
1535 1538 1541 1536 1532 1530 1530 1530 1529 1521 1513 1513 1506 1506 1495 1494 1491 1489 1488 1486 1484 1484 1483 1484 1485 1487 1488 1489 1491 1494 1494 1494 1496 1503 1508 1515 1520 1527 1531 1535 1538 1544 1547 1551
1541 1544 1535 1532 1530 1529 1529 1530 1527 1518 1513 1513 1511 1504 1496 1491 1490 1487 1484 1483 1481 1479 1477 1475 1477 1480 1482 1483 1486 1486 1485 1484 1487 1493 1499 1504 1510 1519 1525 1530 1533 1537 1542 1546
1547 1542 1536 1533 1534 1532 1531 1531 1528 1526 1518 1512 1512 1507 1499 1489 1490 1486 1480 1478 1476 1474 1474 1473 1469 1473 1477 1479 1480 1480 1479 1479 1482 1486 1494 1501 1508 1514 1522 1525 1527 1529 1533 1539
1543 1541 1539 1537 1535 1533 1534 1527 1526 1527 1531 1533 1521 1518 1503 1496 1492 1489 1485 1479 1475 1472 1471 1473 1468 1468 1471 1472 1474 1479 1481 1473 1474 1479 1484 1489 1493 1499 1506 1513 1518 1521 1526 1531
1553 1545 1543 1541 1539 1537 1536 1530 1529 1528 1527 1527 1516 1525 1494 1497 1501 1500 1496 1492 1487 1481 1476 1472 1471 1462 1462 1466 1466 1471 1475 1477 1471 1469 1473 1478 1485 1490 1497 1505 1511 1514 1518 1522
1550 1543 1547 1548 1542 1536 1533 1530 1527 1523 1523 1537 1515 1527 1515 1510 1514 1503 1499 1496 1491 1486 1481 1477 1472 1465 1460 1460 1460 1460 1464 1468 1470 1467 1463 1466 1472 1479 1486 1493 1500 1505 1507 1512
1554 1546 1547 1547 1544 1535 1537 1540 1560 1547 1541 1541 1516 1517 1519 1521 1513 1509 1505 1501 1493 1490 1485 1480 1472 1465 1461 1459 1456 1454 1455 1459 1461 1461 1460 1459 1460 1468 1473 1479 1486 1494 1496 1500
1573 1571 1553 1553 1551 1550 1544 1541 1556 1553 1546 1535 1515 1505 1520 1521 1514 1510 1508 1501 1497 1492 1487 1479 1471 1467 1461 1455 1453 1452 1449 1448 1451 1453 1456 1453 1451 1455 1462 1466 1472 1480 1485 1487
1580 1563 1557 1554 1552 1550 1545 1556 1545 1551 1534 1536 1508 1512 1522 1512 1505 1504 1505 1502 1502 1492 1483 1474 1469 1466 1462 1454 1450 1448 1444 1442 1444 1444 1445 1442 1440 1442 1445 1452 1460 1466 1473 1478
1565 1570 1555 1554 1552 1548 1550 1544 1553 1559 1562 1572 1515 1508 1523 1507 1504 1500 1498 1491 1489 1482 1476 1472 1469 1463 1460 1456 1446 1443 1441 1437 1439 1438 1432 1429 1437 1438 1439 1443 1447 1455 1461 1469
1561 1574 1564 1558 1558 1556 1549 1559 1562 1557 1551 1542 1544 1521 1507 1507 1506 1505 1500 1492 1483 1482 1483 1479 1474 1466 1461 1453 1445 1437 1435 1431 1431 1432 1425 1425 1431 1438 1439 1438 1440 1445 1451 1456
1561 1575 1574 1562 1554 1553 1561 1566 1562 1584 1577 1567 1555 1529 1510 1507 1504 1502 1496 1492 1491 1490 1486 1480 1473 1466 1459 1453 1446 1440 1435 1429 1426 1429 1423 1416 1401 1428 1434 1435 1435 1437 1439 1446
1562 1576 1591 1565 1558 1554 1556 1553 1557 1561 1559 1558 1571 1531 1517 1515 1508 1505 1500 1498 1494 1491 1487 1482 1474 1468 1461 1454 1448 1443 1436 1428 1421 1420 1424 1415 1414 1413 1424 1429 1427 1429 1432 1436
1558 1566 1577 1577 1577 1571 1572 1558 1553 1557 1573 1549 1541 1523 1518 1510 1508 1505 1503 1501 1497 1493 1487 1481 1477 1471 1464 1459 1451 1444 1438 1429 1418 1413 1416 1416 1418 1418 1422 1420 1417 1421 1425 1427
1557 1572 1570 1567 1558 1553 1548 1544 1537 1543 1540 1546 1523 1517 1509 1508 1508 1505 1502 1498 1497 1492 1487 1484 1480 1474 1468 1462 1451 1445 1438 1429 1419 1413 1410 1411 1408 1407 1404 1406 1413 1413 1414 1418
1557 1570 1559 1555 1551 1547 1541 1533 1527 1523 1518 1514 1510 1507 1509 1508 1503 1502 1501 1498 1495 1491 1487 1483 1479 1474 1471 1462 1454 1450 1440 1433 1424 1419 1411 1407 1404 1402 1400 1391 1397 1403 1412 1411
1561 1565 1568 1563 1547 1546 1551 1525 1514 1513 1516 1518 1515 1513 1509 1504 1506 1504 1502 1497 1494 1489 1485 1482 1477 1472 1465 1459 1453 1444 1441 1433 1429 1423 1414 1404 1399 1394 1391 1389 1390 1395 1396 1400
1554 1557 1564 1559 1550 1574 1525 1515 1516 1516 1519 1516 1514 1510 1508 1505 1504 1501 1498 1495 1490 1486 1483 1480 1476 1471 1465 1461 1454 1447 1441 1435 1429 1422 1415 1407 1403 1399 1393 1389 1391 1391 1391 1394
1542 1551 1564 1562 1557 1536 1517 1517 1518 1515 1517 1514 1511 1508 1504 1502 1501 1497 1493 1491 1488 1484 1480 1478 1474 1471 1465 1460 1453 1444 1440 1433 1427 1421 1414 1408 1408 1404 1400 1395 1392 1390 1387 1388
1532 1535 1546 1559 1558 1565 1527 1517 1512 1506 1519 1511 1508 1508 1505 1500 1503 1496 1490 1488 1486 1482 1480 1476 1472 1469 1465 1458 1452 1445 1439 1433 1427 1420 1416 1411 1407 1403 1404 1399 1394 1390 1385 1384
1536 1542 1547 1556 1554 1530 1517 1514 1509 1519 1526 1504 1503 1501 1499 1499 1495 1490 1488 1487 1484 1481 1478 1474 1471 1468 1463 1457 1452 1447 1440 1435 1429 1420 1413 1410 1407 1404 1400 1397 1392 1390 1383 1379
1530 1539 1549 1544 1553 1539 1511 1511 1514 1509 1503 1502 1504 1501 1499 1495 1492 1489 1487 1484 1482 1480 1476 1472 1469 1465 1462 1456 1452 1449 1443 1437 1429 1421 1414 1411 1409 1406 1400 1396 1392 1389 1386 1380
1531 1523 1529 1527 1522 1507 1506 1506 1505 1502 1503 1501 1499 1499 1497 1493 1490 1489 1487 1485 1481 1478 1474 1471 1468 1464 1461 1456 1452 1447 1442 1435 1429 1426 1421 1418 1409 1405 1402 1396 1394 1391 1388 1385
1517 1514 1519 1515 1506 1505 1504 1503 1500 1499 1498 1496 1498 1495 1493 1491 1488 1486 1485 1482 1480 1476 1473 1471 1467 1463 1459 1455 1452 1449 1442 1436 1430 1423 1418 1411 1408 1406 1401 1398 1396 1393 1389 1383
1519 1515 1510 1505 1502 1501 1499 1497 1494 1493 1493 1495 1493 1491 1489 1487 1485 1484 1482 1480 1477 1474 1471 1469 1465 1462 1458 1453 1450 1446 1441 1435 1429 1425 1420 1415 1411 1407 1401 1401 1396 1392 1390 1385
1510 1505 1509 1501 1498 1498 1494 1493 1491 1489 1488 1489 1487 1486 1485 1484 1482 1481 1479 1478 1474 1473 1470 1467 1464 1461 1456 1453 1449 1444 1438 1433 1428 1424 1419 1416 1412 1408 1402 1398 1392 1390 1387 1385